Showing default

QIANFAN-37, 62238

Orbit data source: Space-Track

QIANFAN-37, 62238 is a Chinese payload satellite in LEO that was launched on Thu, 05 Dec 2024 UTC via a CHANG ZHENG 6A launch vehicle from the Taiyaun Space Center, China (TSC). Payload-class satellites include a variety of spacecraft equipped with specific instruments for various scientific and technological missions. These include communications satellites like Starlink; space stations such as the ISS; scientific satellites like the Hubble; Earth observation satellites from companies like Planet Labs, Umbra, and HawkEye 360; GPS; miniature CubeSats for education and research; and military/defense satellites.

Loading next visibility...
Identifier
62238, 2024-232B
Orbit
LEO
Country
Flag of CNCN / PRC
Related business
Manufacturer
SECM
Mission
Operational Commercial Communications
Bus & Motor
QIANFAN, Unknown motor
Mass
267 kg wet, ~267 kg dry
Launch date (UTC)
2024-12-05 (1 year ago)
Launch vehicle
CHANG ZHENG 6A
Launch site
Taiyaun Space Center, China (TSC)
Object type
Payload
Rocket body
Debris
Shape & HBR
Box + 1 Pan, 5.0 m
Radar Cross Section
13.200 m², Large (>1 m²)

Expand to show TLE details & history
Last TLE update: 5 hours ago

TLE from 5 hours ago
0 QIANFAN-37
1 62238U 24232B   26035.17063146  .00000052  00000-0  61393-4 0  9991
2 62238  89.0003  35.9277 0001489  73.6055 286.5259 13.50996990106380
Epoch: 2026-02-04T04:05Z
TLE epoch observation values (Epoch: 2026-02-04T04:05:42.558Z)
Latitude
-0.00008°
Longitude
-159.84068°
Altitude
1,071.231 km
Speed
7.317 km/s
True Right ascension
02h 23m 42s
True Declination
0° 00' 00"
Sunlit
Object was in daylight at epoch
Visualization orbit readout
Latitude
Unknown
Longitude
Unknown
Altitude
Unknown
Speed
Unknown
Apparent Right ascension
Unknown
Apparent Declination
Unknown
Sunlit
N/A
Visualization observer readout
Local Sidereal Time
10:44:45
Azimuth
Unknown
Elevation
Unknown
Doppler factor
Unknown
Orbital elements
Apogee altitude
1,066.752 km
Perigee altitude
1,064.535 km
Semi-major axis
7,443.781 km
Eccentricity
0.00015
Inclination
89.0003°
RAAN
35.9277°
Arg. of periapsis
73.6055°
True anomaly
286.50954°
Mean anomaly
286.5259°
Eccentric anomaly
286.51772°
Mean motion
3.3795 °/min
Orbital period
106.52 mins
BSTAR
0.000061393
Loading maneuver chart data...
Computing Atmospheric mass density...
Loading historical data...
Loading historical data...
Loading historical data...
Loading historical data...
Loading historical data...
Loading historical data...
Loading historical data...

Documentation

Showing up to 5 results
|